Regional Weather Roundup
Issued by NWS

Home | Current Version | Previous Version | Graphics & Text | Print | Product List | Glossary On
Versions: 1 2 3 4 5 6 7 8 9 10 11 12 13 14 15 16 17 18 19 20 21 22 23 24 25 26 27
000
ASUS45 KTFX 282310
RWRMT
MONTANA REGIONAL WEATHER ROUNDUP
NATIONAL WEATHER SERVICE GREAT FALLS MT
500 PM MDT SUN AUG 28 2016

NOTE: "FAIR" INDICATES FEW OR NO CLOUDS BELOW 12000 FEET WITH NO
SIGNIFICANT WEATHER AND/OR OBSTRUCTIONS TO VISIBILITY.

MTZ001>007-043-290000-
WEST OF THE DIVIDE

CITY           SKY/WX    TMP DP  RH WIND       PRES   REMARKS
KALISPELL      SUNNY     79  37  22 SE9       30.05S
MISSOULA       SUNNY     82  31  15 W15G22    30.06S
BUTTE          CLOUDY    77  37  23 NW9       30.17R
MULLAN PASS    MOSUNNY   61  35  37 SW6       30.24S
DEER LODGE       N/A     79  28  15 NW13G18   30.15R
EUREKA           N/A     79  37  22 SW9       30.04S
HAMILTON         N/A     81  34  18 N7        30.09R
LIBBY            N/A     75  37  25 SE8       30.07R
PLAINS           N/A     82  42  24 NW13      30.06S
RONAN            N/A     80  40  24 CALM      30.12S
$$

MTZ008-052>055-290000-
SOUTHWEST MONTANA

CITY           SKY/WX    TMP DP  RH WIND       PRES   REMARKS
BOZEMAN        MOSUNNY   84  39  20 NW15      30.07S
DILLON         CLOUDY    82  38  20 W13       30.12S
W YELLOWSTONE  CLOUDY    75  27  16 SW13G29   30.25S
THREE FORKS      N/A     83  83 100 S9        30.06R HX  99
$$

MTZ009-010-012-014-046-048-049-054-290000-
EAST SLOPES AND CENTRAL MONTANA

CITY           SKY/WX    TMP DP  RH WIND       PRES   REMARKS
CUT BANK       SUNNY     68  43  40 NE8       30.14R
GREAT FALLS    MOSUNNY   76  44  32 N14G22    30.08R
MALMSTROM AFB  CLOUDY    76  44  32 MISG      30.08R
HELENA         CLOUDY    83  29  14 NW14      30.07S
CONRAD           N/A     71  51  49 N5        30.15R
$$

MTZ011-013-016-021-045-047-050-051-290000-
NORTH CENTRAL MONTANA

CITY           SKY/WX    TMP DP  RH WIND       PRES   REMARKS
HAVRE          SUNNY     76  47  35 N10       30.08R
LEWISTOWN      MOSUNNY   78  45  30 N13       30.10R
CHINOOK          N/A     75  48  38 N8        30.07R
$$

MTZ017>020-022>027-061-062-290000-
NORTHEAST MONTANA

CITY           SKY/WX    TMP DP  RH WIND       PRES   REMARKS
GLASGOW        SUNNY     84  45  25 NW14G20   30.00R
JORDAN           N/A     87  44  22 N14G21    30.00R
SIDNEY         SUNNY     87  48  25 N15       29.96R
WOLF POINT     SUNNY     86  49  27 N14G21    29.97R
POPLAR           N/A     84  50  30 NE5       29.98R
SCOBEY           N/A     79  46  31 NW10      30.02R
$$

MTZ028>42-056>058-290000-
SOUTHCENTRAL AND SOUTHEAST MONTANA

CITY           SKY/WX    TMP DP  RH WIND       PRES   REMARKS
BAKER          SUNNY     91  38  15 NW6       29.99R
BILLINGS       CLOUDY    86  33  15 S3        30.01S
LIVINGSTON     CLOUDY    86  34  15 W16       30.06R
MILES CITY     SUNNY     93  37  14 NW12      29.96R
EKALAKA          N/A     88  39  17 W2        30.00R
FORSYTH          N/A     91  39  16 N6        29.97R
LAUREL           N/A     87  38  17 SE3       30.01S
ROUNDUP          N/A     85  42  22 N13       29.95R
$$

REGIONAL REPORTS...DAKOTAS

CITY           SKY/WX    TMP DP  RH WIND       PRES   REMARKS
WILLISTON      SUNNY     87  46  24 N13       29.96R
MINOT          SUNNY     93  54  26 S13       29.86S HX  91
DICKINSON      SUNNY     91  35  13 NW14      29.92R
CROSBY           N/A     81  48  32 N12       30.00R
WATFORD CITY     N/A     84  45  24 N13       29.95R
BISMARCK       SUNNY     89  63  41 SE7       29.90S HX  90
GRAND FORKS    MOSUNNY   83  69  62 SE14      29.92F
FARGO          SUNNY     88  71  57 S17       29.92R HX  94
BUFFALO SD       N/A     92  44  19 N10       29.91R
RAPID CITY     SUNNY     90  49  24 NE10      29.97S
$$

REGIONAL REPORTS...WYOMING/IDAHO/WASHINGTON

CITY           SKY/WX    TMP DP  RH WIND       PRES   REMARKS
GILLETTE       SUNNY     89  27  10 N8        30.05R
SHERIDAN       SUNNY     89  33  13 N8        30.04R
BUFFALO WY     SUNNY     87  27  11 VRB5      30.11R
CODY           CLOUDY    81  34  18 NE9       30.10R
YELLOWSTONE LA   N/A     72  26  18 W8        30.35S
IDAHO FALLS    SUNNY     86  34  15 S20G28    30.13F
SALMON         MOSUNNY   88  37  16 N10       30.05S
BOISE          SUNNY     89  41  18 NW8       30.06F
SPOKANE        PTSUNNY   79  34  19 W7        30.07S
$$

REGIONAL REPORTS...ALBERTA

CITY           SKY/WX    TMP DP  RH WIND       PRES   REMARKS
EDMONTON       CLOUDY    57  37  47 NW10G18   30.12R
CALGARY        PTSUNNY   55  41  58 NE6       30.15S
LETHBRIDGE     PTSUNNY   63  41  45 N5        30.15R
MEDICINE HAT   MOSUNNY   63  45  51 N9        30.13R
WATERTON GATE    N/A     61  43  51 NE6         N/A
MILK RIVER       N/A     64  41  42 NE7         N/A
ONEFOUR          N/A     66  43  42 NW10G17     N/A
$$

REGIONAL REPORTS...SASKATCHEWAN

CITY           SKY/WX    TMP DP  RH WIND       PRES   REMARKS
SWIFT CURRENT  SUNNY     64  45  48 W15G22    30.08R
REGINA         MOSUNNY   73  50  43 NW18G26   30.01R
SASKATOON      PTSUNNY   59  45  58 NW16G29   30.03R
CYPRESS HILLS    N/A     55  43  62 N8          N/A
VAL MARIE        N/A     73  46  38 N14         N/A
ROCKGLEN         N/A     72  48  43 N13G18      N/A
ASSINIBOIA       N/A     59  39  47 W15         N/A
$$




USA.gov is the U.S. government's official web portal to all federal, state and local government web resources and services.